Time,TemperatureF,DewpointF,PressureIn,WindDirection,WindDirectionDegrees,WindSpeedMPH,WindSpeedGustMPH,Humidity,HourlyPrecipIn,Conditions,Clouds,dailyrainin,SoftwareType,DateUTC
2013-07-09 00:02:00,80.0,69.0,28.65,ESE,112,2.0,3.0,69,0.00,,,0.00,,2013-07-09 05:02:00,
2013-07-09 00:11:00,79.0,68.0,28.65,NW,322,0.0,2.0,69,0.00,,,0.00,,2013-07-09 05:11:00,
2013-07-09 00:22:00,79.0,68.0,28.65,SW,226,1.0,2.0,70,0.00,,,0.00,,2013-07-09 05:22:00,
2013-07-09 00:33:00,79.0,68.0,28.65,SE,137,0.0,2.0,70,0.00,,,0.00,,2013-07-09 05:33:00,
2013-07-09 00:52:00,78.0,68.0,28.65,NE,45,1.0,1.0,72,0.00,,,0.00,,2013-07-09 05:52:00,
2013-07-09 01:01:00,78.0,68.0,28.65,South,171,1.0,1.0,72,0.00,,,0.00,,2013-07-09 06:01:00,
2013-07-09 01:11:00,78.0,68.0,28.65,SSE,158,2.0,2.0,72,0.00,,,0.00,,2013-07-09 06:11:00,
2013-07-09 01:22:00,78.0,68.0,28.65,SSE,168,1.0,3.0,72,0.00,,,0.00,,2013-07-09 06:22:00,
2013-07-09 01:33:00,78.0,68.0,28.65,SSE,155,2.0,3.0,72,0.00,,,0.00,,2013-07-09 06:33:00,
2013-07-09 01:43:00,78.0,69.0,28.64,SSE,151,2.0,3.0,73,0.00,,,0.00,,2013-07-09 06:43:00,
2013-07-09 01:53:00,79.0,69.0,28.64,South,170,3.0,5.0,72,0.00,,,0.00,,2013-07-09 06:53:00,
2013-07-09 02:02:00,78.0,69.0,28.64,SW,223,2.0,3.0,73,0.00,,,0.00,,2013-07-09 07:02:00,
2013-07-09 02:12:00,78.0,69.0,28.65,South,175,2.0,6.0,73,0.00,,,0.00,,2013-07-09 07:12:00,
2013-07-09 02:22:00,78.0,69.0,28.64,South,185,2.0,5.0,73,0.00,,,0.00,,2013-07-09 07:22:00,
2013-07-09 02:34:00,78.0,69.0,28.64,SSW,201,3.0,5.0,74,0.00,,,0.00,,2013-07-09 07:34:00,
2013-07-09 02:43:00,78.0,69.0,28.64,South,189,3.0,5.0,73,0.00,,,0.00,,2013-07-09 07:43:00,
2013-07-09 02:53:00,78.0,69.0,28.64,SSW,204,3.0,6.0,74,0.00,,,0.00,,2013-07-09 07:53:00,
2013-07-09 03:01:00,77.0,68.0,28.64,SSW,210,3.0,6.0,74,0.00,,,0.00,,2013-07-09 08:01:00,
2013-07-09 03:11:00,77.0,68.0,28.64,South,180,3.0,6.0,74,0.00,,,0.00,,2013-07-09 08:11:00,
2013-07-09 03:22:00,77.0,68.0,28.64,WSW,256,3.0,6.0,74,0.00,,,0.00,,2013-07-09 08:22:00,
2013-07-09 03:33:00,78.0,69.0,28.64,ESE,102,3.0,5.0,74,0.00,,,0.00,,2013-07-09 08:33:00,
2013-07-09 03:43:00,77.0,68.0,28.64,SW,220,2.0,5.0,75,0.00,,,0.00,,2013-07-09 08:43:00,
2013-07-09 03:52:00,77.0,69.0,28.64,South,173,2.0,3.0,76,0.00,,,0.00,,2013-07-09 08:52:00,
2013-07-09 04:02:00,76.0,68.0,28.65,ENE,61,2.0,3.0,76,0.00,,,0.00,,2013-07-09 09:02:00,
2013-07-09 04:12:00,76.0,68.0,28.65,East,91,2.0,5.0,76,0.00,,,0.00,,2013-07-09 09:12:00,
2013-07-09 04:22:00,76.0,68.0,28.65,SSE,162,1.0,3.0,76,0.00,,,0.00,,2013-07-09 09:22:00,
2013-07-09 04:34:00,76.0,68.0,28.64,SSW,211,2.0,2.0,77,0.00,,,0.00,,2013-07-09 09:34:00,
2013-07-09 04:42:00,76.0,68.0,28.64,East,94,2.0,3.0,77,0.00,,,0.00,,2013-07-09 09:42:00,
2013-07-09 04:52:00,76.0,69.0,28.65,SW,225,2.0,3.0,78,0.00,,,0.00,,2013-07-09 09:52:00,
2013-07-09 05:01:00,75.0,68.0,28.64,SSE,165,1.0,2.0,78,0.00,,,0.00,,2013-07-09 10:01:00,
2013-07-09 05:22:00,76.0,69.0,28.65,SSW,202,2.0,3.0,78,0.00,,,0.00,,2013-07-09 10:22:00,
2013-07-09 05:33:00,76.0,69.0,28.65,SSW,202,2.0,3.0,78,0.00,,,0.00,,2013-07-09 10:33:00,
2013-07-09 05:42:00,75.0,68.0,28.64,SSW,213,3.0,5.0,79,0.00,,,0.00,,2013-07-09 10:42:00,
2013-07-09 05:52:00,75.0,68.0,28.64,South,173,2.0,3.0,79,0.00,,,0.00,,2013-07-09 10:52:00,
2013-07-09 06:01:00,75.0,68.0,28.65,SSW,213,2.0,3.0,79,0.00,,,0.00,,2013-07-09 11:01:00,
2013-07-09 06:11:00,75.0,68.0,28.65,SW,226,2.0,5.0,79,0.00,,,0.00,,2013-07-09 11:11:00,
2013-07-09 06:22:00,74.0,67.0,28.65,South,176,2.0,3.0,79,0.00,,,0.00,,2013-07-09 11:22:00,
2013-07-09 06:34:00,75.0,68.0,28.65,SE,145,3.0,5.0,78,0.00,,,0.00,,2013-07-09 11:34:00,
2013-07-09 06:42:00,75.0,68.0,28.65,SSW,208,2.0,5.0,79,0.00,,,0.00,,2013-07-09 11:42:00,
2013-07-09 06:53:00,75.0,68.0,28.65,NNE,23,2.0,5.0,79,0.00,,,0.00,,2013-07-09 11:53:00,
2013-07-09 07:02:00,75.0,68.0,28.65,SSW,211,2.0,3.0,79,0.00,,,0.00,,2013-07-09 12:02:00,
2013-07-09 07:11:00,75.0,68.0,28.66,SSE,158,2.0,3.0,79,0.00,,,0.00,,2013-07-09 12:11:00,
2013-07-09 07:22:00,76.0,69.0,28.66,WNW,283,3.0,5.0,78,0.00,,,0.00,,2013-07-09 12:22:00,
2013-07-09 07:33:00,77.0,69.0,28.66,South,184,4.0,6.0,77,0.00,,,0.00,,2013-07-09 12:33:00,
2013-07-09 07:43:00,78.0,70.0,28.66,South,174,3.0,6.0,76,0.00,,,0.00,,2013-07-09 12:43:00,
2013-07-09 07:52:00,78.0,69.0,28.66,SSW,197,5.0,7.0,75,0.00,,,0.00,,2013-07-09 12:52:00,
2013-07-09 08:01:00,78.0,69.0,28.67,South,170,3.0,7.0,75,0.00,,,0.00,,2013-07-09 13:01:00,
2013-07-09 08:11:00,79.0,70.0,28.67,South,178,4.0,7.0,73,0.00,,,0.00,,2013-07-09 13:11:00,
2013-07-09 08:22:00,79.0,70.0,28.67,SSW,212,4.0,7.0,73,0.00,,,0.00,,2013-07-09 13:22:00,
2013-07-09 08:33:00,80.0,70.0,28.67,SSW,194,6.0,8.0,72,0.00,,,0.00,,2013-07-09 13:33:00,
2013-07-09 08:43:00,80.0,70.0,28.67,SW,215,4.0,9.0,71,0.00,,,0.00,,2013-07-09 13:43:00,
2013-07-09 08:53:00,82.0,70.0,28.67,SSE,158,5.0,7.0,68,0.00,,,0.00,,2013-07-09 13:53:00,
2013-07-09 09:01:00,83.0,70.0,28.68,SSW,197,5.0,9.0,66,0.00,,,0.00,,2013-07-09 14:01:00,
2013-07-09 09:11:00,84.0,70.0,28.68,SSW,198,5.0,9.0,64,0.00,,,0.00,,2013-07-09 14:11:00,
2013-07-09 09:22:00,85.0,70.0,28.67,South,181,6.0,10.0,62,0.00,,,0.00,,2013-07-09 14:22:00,
2013-07-09 09:34:00,85.0,70.0,28.68,East,81,7.0,10.0,60,0.00,,,0.00,,2013-07-09 14:34:00,
2013-07-09 09:43:00,86.0,70.0,28.68,South,169,7.0,10.0,60,0.00,,,0.00,,2013-07-09 14:43:00,
2013-07-09 09:53:00,86.0,70.0,28.67,South,181,6.0,10.0,59,0.00,,,0.00,,2013-07-09 14:53:00,
2013-07-09 10:02:00,87.0,70.0,28.67,SE,128,4.0,9.0,58,0.00,,,0.00,,2013-07-09 15:02:00,
2013-07-09 10:12:00,87.0,70.0,28.67,WSW,257,6.0,10.0,58,0.00,,,0.00,,2013-07-09 15:12:00,
2013-07-09 10:22:00,87.0,70.0,28.67,SSE,158,6.0,9.0,57,0.00,,,0.00,,2013-07-09 15:22:00,
2013-07-09 10:33:00,88.0,70.0,28.67,SSW,199,6.0,10.0,56,0.00,,,0.00,,2013-07-09 15:33:00,
2013-07-09 10:43:00,88.0,71.0,28.67,WSW,237,6.0,10.0,57,0.00,,,0.00,,2013-07-09 15:43:00,
2013-07-09 10:52:00,88.0,70.0,28.67,South,172,8.0,10.0,56,0.00,,,0.00,,2013-07-09 15:52:00,
2013-07-09 11:02:00,89.0,71.0,28.67,SSW,194,6.0,10.0,55,0.00,,,0.00,,2013-07-09 16:02:00,
2013-07-09 11:11:00,89.0,71.0,28.67,SE,144,7.0,10.0,55,0.00,,,0.00,,2013-07-09 16:11:00,
2013-07-09 11:22:00,90.0,72.0,28.67,SE,132,3.0,9.0,55,0.00,,,0.00,,2013-07-09 16:22:00,
2013-07-09 11:34:00,91.0,73.0,28.66,WSW,237,5.0,8.0,55,0.00,,,0.00,,2013-07-09 16:34:00,
2013-07-09 11:43:00,90.0,71.0,28.66,ENE,70,5.0,10.0,54,0.00,,,0.00,,2013-07-09 16:43:00,
2013-07-09 11:52:00,89.0,71.0,28.67,West,261,6.0,8.0,56,0.00,,,0.00,,2013-07-09 16:52:00,
2013-07-09 12:02:00,90.0,72.0,28.66,SSE,158,5.0,8.0,56,0.00,,,0.00,,2013-07-09 17:02:00,
2013-07-09 12:11:00,91.0,73.0,28.66,SSW,193,8.0,10.0,55,0.00,,,0.00,,2013-07-09 17:11:00,
2013-07-09 12:22:00,91.0,73.0,28.66,SW,216,6.0,8.0,55,0.00,,,0.00,,2013-07-09 17:22:00,
2013-07-09 12:35:00,91.0,72.0,28.66,South,179,6.0,8.0,54,0.00,,,0.00,,2013-07-09 17:35:00,
2013-07-09 12:45:00,92.0,72.0,28.66,WNW,298,4.0,9.0,53,0.00,,,0.00,,2013-07-09 17:45:00,
2013-07-09 12:53:00,92.0,73.0,28.65,WSW,256,5.0,9.0,54,0.00,,,0.00,,2013-07-09 17:53:00,
2013-07-09 13:02:00,92.0,72.0,28.65,West,275,6.0,9.0,53,0.00,,,0.00,,2013-07-09 18:02:00,
2013-07-09 13:11:00,92.0,72.0,28.64,SW,214,5.0,9.0,52,0.00,,,0.00,,2013-07-09 18:11:00,
2013-07-09 13:22:00,92.0,72.0,28.64,SSE,158,5.0,10.0,53,0.00,,,0.00,,2013-07-09 18:22:00,
2013-07-09 13:43:00,94.0,72.0,28.64,WSW,254,5.0,10.0,50,0.00,,,0.00,,2013-07-09 18:43:00,
2013-07-09 13:52:00,94.0,72.0,28.63,NNE,16,5.0,12.0,50,0.00,,,0.00,,2013-07-09 18:52:00,
2013-07-09 14:01:00,94.0,71.0,28.62,SSE,149,6.0,10.0,48,0.00,,,0.00,,2013-07-09 19:01:00,
2013-07-09 14:11:00,95.0,72.0,28.62,SSW,202,7.0,13.0,47,0.00,,,0.00,,2013-07-09 19:11:00,
2013-07-09 14:22:00,95.0,71.0,28.62,SE,135,9.0,10.0,46,0.00,,,0.00,,2013-07-09 19:22:00,
2013-07-09 14:33:00,94.0,71.0,28.62,ESE,111,4.0,9.0,48,0.00,,,0.00,,2013-07-09 19:33:00,
2013-07-09 14:42:00,95.0,72.0,28.62,ESE,117,5.0,9.0,47,0.00,,,0.00,,2013-07-09 19:42:00,
2013-07-09 14:52:00,94.0,71.0,28.62,SSE,154,9.0,10.0,48,0.00,,,0.00,,2013-07-09 19:52:00,
2013-07-09 15:01:00,95.0,70.0,28.61,South,188,7.0,12.0,45,0.00,,,0.00,,2013-07-09 20:01:00,
2013-07-09 15:11:00,96.0,71.0,28.61,South,189,7.0,13.0,45,0.00,,,0.00,,2013-07-09 20:11:00,
2013-07-09 15:22:00,95.0,71.0,28.61,ENE,71,6.0,9.0,46,0.00,,,0.00,,2013-07-09 20:22:00,
2013-07-09 15:32:00,96.0,72.0,28.61,NW,320,3.0,9.0,46,0.00,,,0.00,,2013-07-09 20:32:00,
2013-07-09 15:43:00,95.0,71.0,28.61,South,191,6.0,10.0,46,0.00,,,0.00,,2013-07-09 20:43:00,
2013-07-09 15:52:00,95.0,71.0,28.61,SE,139,7.0,12.0,46,0.00,,,0.00,,2013-07-09 20:52:00,
2013-07-09 16:01:00,95.0,70.0,28.60,SSE,164,6.0,12.0,45,0.00,,,0.00,,2013-07-09 21:01:00,
2013-07-09 16:11:00,95.0,71.0,28.60,South,169,6.0,8.0,46,0.00,,,0.00,,2013-07-09 21:11:00,
2013-07-09 16:22:00,96.0,71.0,28.59,South,185,5.0,10.0,45,0.00,,,0.00,,2013-07-09 21:22:00,
2013-07-09 16:42:00,97.0,71.0,28.59,South,169,6.0,9.0,44,0.00,,,0.00,,2013-07-09 21:42:00,
2013-07-09 16:52:00,96.0,70.0,28.59,SSE,150,7.0,10.0,43,0.00,,,0.00,,2013-07-09 21:52:00,
2013-07-09 17:01:00,96.0,70.0,28.59,SE,146,7.0,9.0,43,0.00,,,0.00,,2013-07-09 22:01:00,
2013-07-09 17:11:00,96.0,71.0,28.59,WSW,252,5.0,10.0,44,0.00,,,0.00,,2013-07-09 22:11:00,
2013-07-09 17:22:00,95.0,70.0,28.59,SW,215,6.0,10.0,44,0.00,,,0.00,,2013-07-09 22:22:00,
2013-07-09 17:33:00,96.0,70.0,28.59,SE,131,6.0,10.0,43,0.00,,,0.00,,2013-07-09 22:33:00,
2013-07-09 17:42:00,95.0,70.0,28.58,WNW,302,5.0,10.0,45,0.00,,,0.00,,2013-07-09 22:42:00,
2013-07-09 17:53:00,96.0,71.0,28.58,SSE,164,5.0,10.0,44,0.00,,,0.00,,2013-07-09 22:53:00,
2013-07-09 18:02:00,95.0,70.0,28.58,SSE,154,5.0,8.0,45,0.00,,,0.00,,2013-07-09 23:02:00,
2013-07-09 18:11:00,95.0,70.0,28.58,NE,54,5.0,10.0,45,0.00,,,0.00,,2013-07-09 23:11:00,
2013-07-09 18:22:00,94.0,69.0,28.58,SSE,149,6.0,10.0,45,0.00,,,0.00,,2013-07-09 23:22:00,
2013-07-09 18:33:00,94.0,69.0,28.57,South,190,7.0,12.0,45,0.00,,,0.00,,2013-07-09 23:33:00,
2013-07-09 18:43:00,94.0,69.0,28.57,ESE,112,6.0,12.0,45,0.00,,,0.00,,2013-07-09 23:43:00,
2013-07-09 18:52:00,93.0,68.0,28.57,SE,128,4.0,9.0,45,0.00,,,0.00,,2013-07-09 23:52:00,
2013-07-09 19:01:00,93.0,69.0,28.57,NE,40,3.0,9.0,46,0.00,,,0.00,,2013-07-10 00:01:00,
2013-07-09 19:11:00,93.0,69.0,28.57,SSE,159,3.0,7.0,46,0.00,,,0.00,,2013-07-10 00:11:00,
2013-07-09 19:22:00,92.0,68.0,28.57,SW,214,6.0,10.0,46,0.00,,,0.00,,2013-07-10 00:22:00,
2013-07-09 19:33:00,92.0,69.0,28.57,SSE,159,6.0,9.0,48,0.00,,,0.00,,2013-07-10 00:33:00,
2013-07-09 19:42:00,92.0,69.0,28.57,West,274,7.0,9.0,48,0.00,,,0.00,,2013-07-10 00:42:00,
2013-07-09 19:52:00,92.0,70.0,28.57,SSW,196,5.0,8.0,49,0.00,,,0.00,,2013-07-10 00:52:00,
2013-07-09 20:01:00,91.0,69.0,28.57,South,180,3.0,7.0,49,0.00,,,0.00,,2013-07-10 01:01:00,
2013-07-09 20:11:00,91.0,69.0,28.57,South,180,3.0,7.0,49,0.00,,,0.00,,2013-07-10 01:11:00,
2013-07-09 20:22:00,90.0,69.0,28.57,East,90,3.0,6.0,50,0.00,,,0.00,,2013-07-10 01:22:00,
2013-07-09 20:33:00,90.0,70.0,28.57,ESE,112,2.0,5.0,52,0.00,,,0.00,,2013-07-10 01:33:00,
2013-07-09 20:43:00,89.0,69.0,28.57,SE,144,2.0,3.0,52,0.00,,,0.00,,2013-07-10 01:43:00,
2013-07-09 20:53:00,89.0,70.0,28.56,South,185,2.0,5.0,54,0.00,,,0.00,,2013-07-10 01:53:00,
2013-07-09 21:02:00,88.0,69.0,28.56,South,171,4.0,6.0,54,0.00,,,0.00,,2013-07-10 02:02:00,
2013-07-09 21:11:00,88.0,69.0,28.56,SSE,160,3.0,6.0,54,0.00,,,0.00,,2013-07-10 02:11:00,
2013-07-09 21:22:00,88.0,69.0,28.56,SSW,192,4.0,7.0,54,0.00,,,0.00,,2013-07-10 02:22:00,
2013-07-09 21:34:00,87.0,69.0,28.56,WSW,239,3.0,6.0,56,0.00,,,0.00,,2013-07-10 02:34:00,
2013-07-09 21:43:00,87.0,70.0,28.56,West,261,3.0,5.0,57,0.00,,,0.00,,2013-07-10 02:43:00,
2013-07-09 21:53:00,87.0,70.0,28.56,West,261,3.0,5.0,57,0.00,,,0.00,,2013-07-10 02:53:00,
2013-07-09 22:01:00,85.0,69.0,28.57,SW,225,2.0,3.0,59,0.00,,,0.00,,2013-07-10 03:01:00,
2013-07-09 22:12:00,86.0,70.0,28.57,South,186,3.0,6.0,59,0.00,,,0.00,,2013-07-10 03:12:00,
2013-07-09 22:22:00,85.0,70.0,28.57,SW,231,3.0,6.0,60,0.00,,,0.00,,2013-07-10 03:22:00,
2013-07-09 22:32:00,85.0,70.0,28.58,SSE,168,2.0,5.0,61,0.00,,,0.00,,2013-07-10 03:32:00,
2013-07-09 22:43:00,85.0,70.0,28.58,South,184,3.0,5.0,61,0.00,,,0.00,,2013-07-10 03:43:00,
2013-07-09 22:52:00,84.0,70.0,28.58,West,263,2.0,5.0,62,0.00,,,0.00,,2013-07-10 03:52:00,
2013-07-09 23:01:00,84.0,70.0,28.59,SSE,167,3.0,6.0,62,0.00,,,0.00,,2013-07-10 04:01:00,
2013-07-09 23:11:00,84.0,70.0,28.59,SSW,202,3.0,5.0,62,0.00,,,0.00,,2013-07-10 04:11:00,
2013-07-09 23:22:00,84.0,70.0,28.59,SSW,202,3.0,5.0,62,0.00,,,0.00,,2013-07-10 04:22:00,
2013-07-09 23:33:00,83.0,70.0,28.59,South,182,3.0,5.0,64,0.00,,,0.00,,2013-07-10 04:33:00,
2013-07-09 23:43:00,83.0,70.0,28.58,SSW,207,3.0,5.0,65,0.00,,,0.00,,2013-07-10 04:43:00,
2013-07-09 23:52:00,83.0,70.0,28.59,ESE,117,3.0,6.0,64,0.00,,,0.00,,2013-07-10 04:52:00,